This is the latest recevied weather packets stored in our database for station/object OK2JF-6. If no packets are shown the sender has not sent any weather packets the latest 10 day(s).
| Time | Temp. | Humidity | Pressure | Rain* | Wind** | Luminosity | Snow |
|---|---|---|---|---|---|---|---|
| 1778126643 | 11.11° C | 89% | 1080.7 hPa | 0 mm | - | 23 W/m² | - |
| 1778126523 | 11.11° C | 89% | 1080.6 hPa | 0 mm | - | 18 W/m² | - |
| 1778126357 | 11.11° C | 89% | 1080.8 hPa | 0 mm | - | 15 W/m² | - |
| 1778125623 | 10.56° C | 89% | 1080.5 hPa | 0 mm | - | 7 W/m² | - |
| 1778124977 | 10.56° C | 88% | 1080.3 hPa | 0 mm | - | 3 W/m² | - |
| 1778124723 | 10.56° C | 88% | 1080.4 hPa | 0 mm | - | 2 W/m² | - |
| 1778124197 | 10.56° C | 88% | 1080.1 hPa | 0 mm | - | 1 W/m² | - |
| 1778123943 | 10.56° C | 88% | 1080.2 hPa | 0 mm | - | 0 W/m² | - |
| 1778123823 | 10.56° C | 88% | 1080 hPa | 0 mm | - | 0 W/m² | - |
| 1778123343 | 10° C | 88% | 1080.4 hPa | 0 mm | - | 0 W/m² | - |
| 1778122263 | 10° C | 87% | 1080.3 hPa | 0 mm | - | 0 W/m² | - |
| 1778121603 | 10.56° C | 87% | 1080.2 hPa | 0 mm | - | 0 W/m² | - |
| 1778121483 | 10.56° C | 87% | 1080.3 hPa | 0 mm | - | 0 W/m² | - |
| 1778121303 | 10.56° C | 87% | 1080.1 hPa | 0 mm | - | 0 W/m² | - |
| 1778120823 | 10.56° C | 87% | 1080.1 hPa | 0 mm | - | 0 W/m² | - |
| 1778120703 | 10.56° C | 87% | 1080 hPa | 0 mm | - | 0 W/m² | - |
| 1778119923 | 10.56° C | 87% | 1079.9 hPa | 0 mm | - | 0 W/m² | - |
| 1778119683 | 10.56° C | 87% | 1079.9 hPa | 0 mm | - | 0 W/m² | - |
| 1778119143 | 10.56° C | 87% | 1080.1 hPa | 0 mm | - | 0 W/m² | - |
| 1778119023 | 10.56° C | 87% | 1079.9 hPa | 0 mm | - | 0 W/m² | - |
| 1778118843 | 10.56° C | 87% | 1079.7 hPa | 0 mm | - | 0 W/m² | - |
| 1778118723 | 10.56° C | 86% | 1079.9 hPa | 0 mm | - | 0 W/m² | - |
| 1778118543 | 10.56° C | 86% | 1079.6 hPa | 0 mm | - | 0 W/m² | - |
| 1778118303 | 11.11° C | 87% | 1079.5 hPa | 0 mm | - | 0 W/m² | - |
| 1778117883 | 11.11° C | 86% | 1079.5 hPa | 0 mm | - | 0 W/m² | - |
* Rain latest hour (hover to see other rain measurements)
** Current wind speed in m/s (hover to see current wind gust speed)